Princeton, MN

12:30 AM CDT on April 20, 2018 (GMT -0500)
Princeton Municipal

Weather History for KPNM - May, 2014

Change the Weather History Date:

Thursday, May 15, 2014

  Actual Average Record
Temperature  
Mean Temperature 44 °F -  
Max Temperature 48 °F 64 °F 96 °F (2001)
Min Temperature 39 °F 41 °F 26 °F (2004)
Degree Days  
Heating Degree Days 22    
Moisture  
Dew Point 31 °F    
Average Humidity 62    
Maximum Humidity 75    
Minimum Humidity 46    
Precipitation  
Precipitation 0.00 in - - ()
Sea Level Pressure  
Sea Level Pressure 30.16 in    
Wind  
Wind Speed 7 mph (NNW)    
Max Wind Speed 13 mph    
Max Gust Speed 17 mph    
Visibility 10 miles    
Events      
Averages and records for this station are not official NWS values.
T = Trace of Precipitation, MM = Missing Value Source: NWS Daily Summary

Daily Weather History Graph

Daily Weather History Graph

Search for Another Location

Airport or City:

Astronomy

May. 15, 2014 Rise Set
Actual Time 5:43 AM CDT 8:38 PM CDT
Civil Twilight 5:08 AM CDT 9:13 PM CDT
Nautical Twilight 4:24 AM CDT 9:57 PM CDT
Astronomical Twilight 3:32 AM CDT 10:50 PM CDT
Moon 9:47 PM CDT (5/15) 6:31 AM CDT (5/15)
Length of Visible Light 16h 04m
Length of Day
14h 55m
Full, 99% of the Moon is Illuminated
May 15
Full
May 21
Last Quarter
May 28
New
Jun 5
First Quarter
Jun 12
Full

Hourly Weather History & Observations

Time (CDT) Temp. Windchill Dew Point Humidity Pressure Visibility Wind Dir Wind Speed Gust Speed Precip Events Conditions
12:14 AM 41.0 °F 36.4 °F 30.2 °F 65% 30.23 in 10.0 mi North 6.9 mph - N/A   Mostly Cloudy
12:33 AM 41.0 °F 36.4 °F 30.2 °F 65% 30.23 in 10.0 mi North 6.9 mph - N/A   Mostly Cloudy
12:53 AM 41.0 °F 36.4 °F 30.2 °F 65% 30.22 in 10.0 mi North 6.9 mph - N/A   Overcast
1:13 AM 41.0 °F 35.2 °F 30.2 °F 65% 30.22 in 10.0 mi North 9.2 mph - N/A   Overcast
1:33 AM 41.0 °F 35.8 °F 30.2 °F 65% 30.21 in 10.0 mi North 8.1 mph - N/A   Overcast
1:53 AM 41.0 °F 35.2 °F 30.2 °F 65% 30.20 in 10.0 mi North 9.2 mph - N/A   Overcast
2:13 AM 41.0 °F 36.4 °F 30.2 °F 65% 30.20 in 10.0 mi North 6.9 mph - N/A   Overcast
2:33 AM 41.0 °F 35.8 °F 30.2 °F 65% 30.19 in 10.0 mi North 8.1 mph - N/A   Overcast
2:53 AM 39.2 °F 35.0 °F 30.2 °F 70% 30.19 in 10.0 mi NNW 5.8 mph - N/A   Overcast
3:13 AM 39.2 °F 34.2 °F 30.2 °F 70% 30.19 in 10.0 mi North 6.9 mph - N/A   Mostly Cloudy
3:33 AM 39.2 °F 33.6 °F 30.2 °F 70% 30.19 in 10.0 mi North 8.1 mph - N/A   Overcast
3:53 AM 39.2 °F 35.0 °F 30.2 °F 70% 30.19 in 10.0 mi NNW 5.8 mph - N/A   Overcast
4:13 AM 39.2 °F 35.9 °F 30.2 °F 70% 30.19 in 10.0 mi NNW 4.6 mph - N/A   Mostly Cloudy
4:33 AM 39.2 °F 35.0 °F 30.2 °F 70% 30.19 in 10.0 mi North 5.8 mph - N/A   Mostly Cloudy
4:53 AM 39.2 °F 34.2 °F 32.0 °F 75% 30.19 in 10.0 mi North 6.9 mph - N/A   Overcast
5:13 AM 39.2 °F 34.2 °F 32.0 °F 75% 30.19 in 10.0 mi North 6.9 mph - N/A   Overcast
5:33 AM 39.2 °F 33.0 °F 30.2 °F 70% 30.19 in 10.0 mi North 9.2 mph - N/A   Overcast
5:54 AM 39.2 °F 34.2 °F 30.2 °F 70% 30.19 in 10.0 mi North 6.9 mph - N/A   Overcast
6:13 AM 39.2 °F 33.6 °F 30.2 °F 70% 30.19 in 10.0 mi North 8.1 mph - N/A   Overcast
6:33 AM 39.2 °F 34.2 °F 32.0 °F 75% 30.19 in 10.0 mi NNW 6.9 mph - N/A   Overcast
6:54 AM 39.2 °F 33.6 °F 32.0 °F 75% 30.19 in 10.0 mi NNW 8.1 mph - N/A   Mostly Cloudy
7:13 AM 41.0 °F 35.8 °F 32.0 °F 70% 30.19 in 10.0 mi NNW 8.1 mph - N/A   Scattered Clouds
7:33 AM 41.0 °F 34.7 °F 32.0 °F 70% 30.19 in 10.0 mi NNW 10.4 mph - N/A   Mostly Cloudy
7:54 AM 41.0 °F 34.7 °F 32.0 °F 70% 30.19 in 10.0 mi North 10.4 mph - N/A   Overcast
8:13 AM 41.0 °F 35.2 °F 32.0 °F 70% 30.19 in 10.0 mi NNW 9.2 mph - N/A   Overcast
8:33 AM 42.8 °F 38.0 °F 32.0 °F 66% 30.19 in 10.0 mi North 8.1 mph - N/A   Overcast
8:54 AM 42.8 °F 36.6 °F 32.0 °F 66% 30.18 in 10.0 mi NNW 11.5 mph - N/A   Overcast
9:13 AM 42.8 °F 36.6 °F 32.0 °F 66% 30.18 in 10.0 mi NNW 11.5 mph - N/A   Overcast
9:33 AM 44.6 °F 40.2 °F 32.0 °F 61% 30.18 in 10.0 mi North 8.1 mph 11.5 mph N/A   Overcast
10:13 AM 44.6 °F 38.8 °F 30.2 °F 57% 30.18 in 10.0 mi NNW 11.5 mph - N/A   Overcast
10:33 AM 44.6 °F 40.2 °F 30.2 °F 57% 30.18 in 10.0 mi North 8.1 mph - N/A   Overcast
10:54 AM 44.6 °F 40.2 °F 30.2 °F 57% 30.17 in 10.0 mi North 8.1 mph - N/A   Overcast
11:13 AM 44.6 °F 38.8 °F 30.2 °F 57% 30.17 in 10.0 mi NNW 11.5 mph 16.1 mph N/A   Overcast
11:33 AM 44.6 °F 39.7 °F 32.0 °F 61% 30.17 in 10.0 mi NNW 9.2 mph - N/A   Overcast
11:53 AM 46.4 °F 41.9 °F 30.2 °F 53% 30.16 in 10.0 mi North 9.2 mph - N/A   Overcast
12:13 PM 44.6 °F 38.4 °F 30.2 °F 57% 30.16 in 10.0 mi North 12.7 mph 16.1 mph N/A   Overcast
12:53 PM 44.6 °F 39.2 °F 33.8 °F 66% 30.16 in 10.0 mi NW 10.4 mph - N/A   Overcast
1:13 PM 44.6 °F 39.2 °F 33.8 °F 66% 30.16 in 10.0 mi NNW 10.4 mph 17.3 mph N/A   Overcast
1:33 PM 44.6 °F 39.2 °F 33.8 °F 66% 30.16 in 7.0 mi NNW 10.4 mph - N/A   Overcast
2:13 PM 46.4 °F 42.9 °F 32.0 °F 57% 30.15 in 10.0 mi NNW 6.9 mph - N/A   Overcast
2:33 PM 46.4 °F 43.5 °F 30.2 °F 53% 30.15 in 10.0 mi North 5.8 mph - N/A   Overcast
2:53 PM 46.4 °F 41.5 °F 30.2 °F 53% 30.15 in 10.0 mi North 10.4 mph - N/A   Overcast
3:13 PM 46.4 °F 41.5 °F 30.2 °F 53% 30.14 in 10.0 mi North 10.4 mph - N/A   Overcast
3:33 PM 46.4 °F 42.4 °F 30.2 °F 53% 30.14 in 10.0 mi NNW 8.1 mph - N/A   Overcast
3:53 PM 48.2 °F - 30.2 °F 50% 30.14 in 10.0 mi NNW 10.4 mph - N/A   Overcast
4:13 PM 48.2 °F - 28.4 °F 46% 30.13 in 10.0 mi North 10.4 mph - N/A   Overcast
4:54 PM 46.4 °F 41.1 °F 32.0 °F 57% 30.13 in 10.0 mi NNE 11.5 mph - N/A   Overcast
5:13 PM 46.4 °F 41.9 °F 30.2 °F 53% 30.13 in 10.0 mi North 9.2 mph - N/A   Overcast
5:33 PM 46.4 °F 42.4 °F 30.2 °F 53% 30.13 in 10.0 mi NNW 8.1 mph - N/A   Overcast
5:54 PM 46.4 °F 41.9 °F 30.2 °F 53% 30.13 in 10.0 mi North 9.2 mph - N/A   Overcast
6:13 PM 46.4 °F 41.1 °F 28.4 °F 50% 30.13 in 10.0 mi North 11.5 mph - N/A   Overcast
6:33 PM 46.4 °F 42.9 °F 30.2 °F 53% 30.12 in 10.0 mi NNW 6.9 mph - N/A   Overcast
6:53 PM 46.4 °F 44.3 °F 33.8 °F 62% 30.12 in 10.0 mi NNE 4.6 mph - N/A   Overcast
7:13 PM 46.4 °F 45.2 °F 32.0 °F 57% 30.12 in 10.0 mi North 3.5 mph - N/A   Overcast
7:33 PM 46.4 °F 44.3 °F 30.2 °F 53% 30.12 in 10.0 mi North 4.6 mph - N/A   Overcast
7:53 PM 46.4 °F - 32.0 °F 57% 30.13 in 10.0 mi Calm Calm - N/A   Overcast
8:13 PM 46.4 °F 44.3 °F 30.2 °F 53% 30.13 in 10.0 mi NNW 4.6 mph - N/A   Overcast
8:33 PM 44.6 °F 43.1 °F 28.4 °F 53% 30.12 in 10.0 mi North 3.5 mph - N/A   Overcast
8:53 PM 44.6 °F 43.1 °F 30.2 °F 57% 30.12 in 10.0 mi North 3.5 mph - N/A   Overcast
9:13 PM 44.6 °F - 30.2 °F 57% 30.13 in 10.0 mi Calm Calm - N/A   Overcast
9:33 PM 44.6 °F 43.1 °F 30.2 °F 57% 30.13 in 10.0 mi NNW 3.5 mph - N/A   Overcast
9:53 PM 44.6 °F 42.2 °F 30.2 °F 57% 30.13 in 10.0 mi NNW 4.6 mph - N/A   Overcast
10:13 PM 44.6 °F 43.1 °F 30.2 °F 57% 30.13 in 10.0 mi NNW 3.5 mph - N/A   Overcast
10:33 PM 44.6 °F - 30.2 °F 57% 30.13 in 10.0 mi Calm Calm - N/A   Overcast
11:13 PM 42.8 °F - 30.2 °F 61% 30.13 in 10.0 mi Calm Calm - N/A   Overcast
11:33 PM 42.8 °F 41.1 °F 30.2 °F 61% 30.13 in 10.0 mi NW 3.5 mph - N/A   Overcast
11:53 PM 44.6 °F 43.1 °F 30.2 °F 57% 30.12 in 10.0 mi NW 3.5 mph - N/A   Overcast